Regional Weather Roundup
Issued by NWS

Home | Current Version | Previous Version | Text Only | Print | Product List | Glossary On
Versions: 1 2 3 4 5 6 7 8 9 10 11 12 13 14 15 16 17 18 19 20 21 22 23 24 25 26 27 28 29 30 31 32 33 34 35 36 37 38 39 40 41 42 43 44 45 46 47 48 49 50
000
ASUS43 KFSD 230802
RWRSD

WEATHER ROUNDUP FOR SOUTH DAKOTA
NATIONAL WEATHER SERVICE SIOUX FALLS SD
300 AM CDT WED MAY 23 2018

NOTE: "FAIR" INDICATES FEW OR NO CLOUDS BELOW 12,000 FEET WITH NO
SIGNIFICANT WEATHER AND/OR OBSTRUCTIONS TO VISIBILITY.


SDZ001>005-009-010-012>017-230900-
NORTHWEST AND NORTH CENTRAL SOUTH DAKOTA

CITY           SKY/WX    TMP DP  RH WIND       PRES   REMARKS
BUFFALO          N/A     61  55  81 NE12      29.85S
FAITH            N/A     65  62  90 S16G33    29.93R
MOBRIDGE       CLOUDY    66  61  84 E9        29.87F
$$

SDZ012>016-024>037-041>051-057-063-072>074-230900-
SOUTHWEST AND SOUTH CENTRAL SOUTH DAKOTA

CITY           SKY/WX    TMP DP  RH WIND       PRES   REMARKS
RAPID CTY ARPT CLOUDY    58  54  86 SW20      29.96R
PIERRE         RAIN      64  64 100 E8        29.91F
CUSTER         LGT RAIN  50  48  93 NE9       29.99F
ELLSWORTH AFB  CLOUDY    58  58 100 SW17      29.94
PHILIP         CLOUDY    61  61 100 NE12      29.87F
PINE RIDGE     CLOUDY    57  56  96 E6        29.89F
SPEARFISH      FAIR      64  46  52 S8G16     29.90F
WINNER         FAIR      65  59  81 SE9       29.89R
$$

SDZ004>011-016>023-039-040-230900-
NORTHEAST SOUTH DAKOTA

CITY           SKY/WX    TMP DP  RH WIND       PRES   REMARKS
ABERDEEN       MOCLDY    65  58  78 E10       29.93F
WATERTOWN      CLOUDY    67  60  78 E7        29.96F
BROOKINGS      CLOUDY    67  61  81 SE13      29.97S
SISSETON         N/A     61  56  83 CALM      29.97F
$$

SDZ017-020-022-023-036>040-048>070-230900-
SOUTHEAST SOUTH DAKOTA

CITY           SKY/WX    TMP DP  RH WIND       PRES   REMARKS
SIOUX FALLS    CLEAR     66  62  87 SE7       29.95S
HURON          CLOUDY    68  62  81 E7        29.92S THUNDER
CHAMBERLAIN    CLOUDY    69  69 100 NE7       29.94R
MITCHELL       MOCLDY    68  64  87 SE8       29.89F
YANKTON        CLOUDY    66  64  93 SE6       29.92F
$$

ABBREVIATIONS USED IN REMARKS
   TC - TEMPERATURE IN CELSIUS
  WCI - WIND CHILL INDEX
   HX - HEAT INDEX
  VSB - VISIBILITY





USA.gov is the U.S. government's official web portal to all federal, state and local government web resources and services.